Time,TemperatureF,DewpointF,PressureIn,WindDirection,WindDirectionDegrees,WindSpeedMPH,WindSpeedGustMPH,Humidity,HourlyPrecipIn,Conditions,Clouds,dailyrainin,SoftwareType,DateUTC
2013-12-06 00:02:00,14.4,10.5,30.23,SSE,148,0.0,0.0,84,0.00,,---,0.00,VWS V14.01,2013-12-06 08:02:00,
2013-12-06 00:07:00,14.3,10.4,30.23,SSE,148,0.0,0.0,84,0.00,,---,0.00,VWS V14.01,2013-12-06 08:07:00,
2013-12-06 00:12:00,14.2,10.3,30.23,SSE,148,0.0,0.0,84,0.00,,---,0.00,VWS V14.01,2013-12-06 08:12:00,
2013-12-06 00:17:00,14.1,10.2,30.23,SSE,148,0.0,0.0,84,0.00,,---,0.00,VWS V14.01,2013-12-06 08:17:00,
2013-12-06 00:22:00,14.1,10.2,30.23,SSE,148,0.0,0.0,84,0.00,,---,0.00,VWS V14.01,2013-12-06 08:22:00,
2013-12-06 00:27:00,14.0,10.1,30.23,SSE,148,0.0,0.0,84,0.00,,---,0.00,VWS V14.01,2013-12-06 08:27:00,
2013-12-06 00:32:00,14.0,10.1,30.22,SSE,148,0.0,0.0,84,0.00,,---,0.00,VWS V14.01,2013-12-06 08:32:00,
2013-12-06 00:37:00,13.9,10.0,30.22,SSE,148,0.0,0.0,84,0.00,,---,0.00,VWS V14.01,2013-12-06 08:37:00,
2013-12-06 00:42:00,13.8,9.9,30.22,SSE,148,0.0,0.0,84,0.00,,---,0.00,VWS V14.01,2013-12-06 08:42:00,
2013-12-06 00:47:00,13.8,10.1,30.22,SSE,148,0.0,0.0,85,0.00,,---,0.00,VWS V14.01,2013-12-06 08:47:00,
2013-12-06 00:52:00,13.8,10.1,30.22,SSE,148,0.0,0.0,85,0.00,,---,0.00,VWS V14.01,2013-12-06 08:52:00,
2013-12-06 00:57:00,13.8,10.1,30.22,SSE,148,0.0,0.0,85,0.00,,---,0.00,VWS V14.01,2013-12-06 08:57:00,
2013-12-06 01:02:00,13.8,10.1,30.22,SSE,148,0.0,0.0,85,0.00,,---,0.00,VWS V14.01,2013-12-06 09:02:00,
2013-12-06 01:07:00,13.8,10.1,30.22,SSE,148,0.0,0.0,85,0.00,,---,0.00,VWS V14.01,2013-12-06 09:07:00,
2013-12-06 01:12:00,13.9,10.2,30.22,SSE,148,0.0,0.0,85,0.00,,---,0.00,VWS V14.01,2013-12-06 09:12:00,
2013-12-06 01:17:00,13.9,10.2,30.21,SSE,148,0.0,0.0,85,0.00,,---,0.00,VWS V14.01,2013-12-06 09:17:00,
2013-12-06 01:22:00,14.0,10.6,30.21,SSE,148,0.0,0.0,86,0.00,,---,0.00,VWS V14.01,2013-12-06 09:22:00,
2013-12-06 01:27:00,14.0,10.6,30.21,SSE,148,0.0,0.0,86,0.00,,---,0.00,VWS V14.01,2013-12-06 09:27:00,
2013-12-06 01:32:00,14.1,10.7,30.21,SSE,148,0.0,0.0,86,0.00,,---,0.00,VWS V14.01,2013-12-06 09:32:00,
2013-12-06 01:37:00,14.2,10.8,30.21,SSE,148,0.0,2.0,86,0.00,,---,0.00,VWS V14.01,2013-12-06 09:37:00,
2013-12-06 01:42:00,14.2,10.8,30.21,SSE,148,0.0,1.0,86,0.00,,---,0.00,VWS V14.01,2013-12-06 09:42:00,
2013-12-06 01:47:00,14.3,10.9,30.21,SSE,148,0.0,0.0,86,0.00,,---,0.00,VWS V14.01,2013-12-06 09:47:00,
2013-12-06 01:52:00,14.4,11.0,30.21,SSE,148,0.0,0.0,86,0.00,,---,0.00,VWS V14.01,2013-12-06 09:52:00,
2013-12-06 01:57:00,14.4,11.0,30.21,SSE,148,0.0,0.0,86,0.00,,---,0.00,VWS V14.01,2013-12-06 09:57:00,
2013-12-06 02:02:00,14.3,10.9,30.21,SSE,148,0.0,0.0,86,0.00,,---,0.00,VWS V14.01,2013-12-06 10:02:00,
2013-12-06 02:07:00,14.3,10.9,30.21,SSE,148,0.0,0.0,86,0.00,,---,0.00,VWS V14.01,2013-12-06 10:07:00,
2013-12-06 02:12:00,14.4,11.0,30.21,SSE,148,0.0,0.0,86,0.00,,---,0.00,VWS V14.01,2013-12-06 10:12:00,
2013-12-06 02:17:00,14.4,11.0,30.21,SSE,148,0.0,1.0,86,0.00,,---,0.00,VWS V14.01,2013-12-06 10:17:00,
2013-12-06 02:22:00,14.4,11.0,30.21,SSE,148,0.0,0.0,86,0.00,,---,0.00,VWS V14.01,2013-12-06 10:22:00,
2013-12-06 02:27:00,14.4,11.0,30.21,SSE,148,0.0,0.0,86,0.00,,---,0.00,VWS V14.01,2013-12-06 10:27:00,
2013-12-06 02:32:00,14.4,10.7,30.21,SSE,148,0.0,1.0,85,0.00,,---,0.00,VWS V14.01,2013-12-06 10:32:00,
2013-12-06 02:37:00,14.5,11.1,30.21,SSE,148,0.0,0.0,86,0.00,,---,0.00,VWS V14.01,2013-12-06 10:37:00,
2013-12-06 02:42:00,14.5,10.8,30.22,SSE,148,0.0,1.0,85,0.00,,---,0.00,VWS V14.01,2013-12-06 10:42:00,
2013-12-06 02:47:00,14.5,10.8,30.21,SSE,148,0.0,0.0,85,0.00,,---,0.00,VWS V14.01,2013-12-06 10:47:00,
2013-12-06 02:52:00,14.5,10.8,30.21,SSE,148,0.0,0.0,85,0.00,,---,0.00,VWS V14.01,2013-12-06 10:52:00,
2013-12-06 02:57:00,14.5,10.8,30.22,SSE,148,1.0,1.0,85,0.00,,---,0.00,VWS V14.01,2013-12-06 10:57:00,
2013-12-06 03:02:00,14.3,10.6,30.21,SSE,148,2.0,2.0,85,0.00,,---,0.00,VWS V14.01,2013-12-06 11:02:00,
2013-12-06 03:07:00,14.1,10.2,30.21,SSE,148,0.0,0.0,84,0.00,,---,0.00,VWS V14.01,2013-12-06 11:07:00,
2013-12-06 03:12:00,14.0,10.1,30.21,SSE,148,0.0,1.0,84,0.00,,---,0.00,VWS V14.01,2013-12-06 11:12:00,
2013-12-06 03:17:00,13.8,9.9,30.21,SSE,148,1.0,3.0,84,0.00,,---,0.00,VWS V14.01,2013-12-06 11:17:00,
2013-12-06 03:22:00,13.7,9.8,30.21,SSE,148,2.0,2.0,84,0.00,,---,0.00,VWS V14.01,2013-12-06 11:22:00,
2013-12-06 03:27:00,13.7,9.8,30.20,SSE,148,0.0,0.0,84,0.00,,---,0.00,VWS V14.01,2013-12-06 11:27:00,
2013-12-06 03:32:00,13.7,9.8,30.20,SSE,148,2.0,2.0,84,0.00,,---,0.00,VWS V14.01,2013-12-06 11:32:00,
2013-12-06 03:37:00,13.8,10.1,30.20,SSE,148,0.0,0.0,85,0.00,,---,0.00,VWS V14.01,2013-12-06 11:37:00,
2013-12-06 03:42:00,13.8,10.1,30.20,SSE,148,0.0,1.0,85,0.00,,---,0.00,VWS V14.01,2013-12-06 11:42:00,
2013-12-06 03:47:00,13.9,10.2,30.20,SSE,148,0.0,0.0,85,0.00,,---,0.00,VWS V14.01,2013-12-06 11:47:00,
2013-12-06 03:52:00,13.8,10.1,30.21,SSE,148,0.0,0.0,85,0.00,,---,0.00,VWS V14.01,2013-12-06 11:52:00,
2013-12-06 03:57:00,13.8,10.1,30.20,SSE,148,0.0,0.0,85,0.00,,---,0.00,VWS V14.01,2013-12-06 11:57:00,
2013-12-06 04:02:00,13.8,10.1,30.20,SSE,148,0.0,1.0,85,0.00,,---,0.00,VWS V14.01,2013-12-06 12:02:00,
2013-12-06 04:07:00,13.9,10.2,30.21,SSE,148,0.0,0.0,85,0.00,,---,0.00,VWS V14.01,2013-12-06 12:07:00,
2013-12-06 04:13:00,13.9,10.2,30.21,SSE,148,0.0,0.0,85,0.00,,---,0.00,VWS V14.01,2013-12-06 12:13:00,
2013-12-06 04:18:00,14.2,10.8,30.21,SSE,148,1.0,1.0,86,0.00,,---,0.00,VWS V14.01,2013-12-06 12:18:00,
2013-12-06 04:23:00,14.5,11.1,30.21,SSE,148,0.0,0.0,86,0.00,,---,0.00,VWS V14.01,2013-12-06 12:23:00,
2013-12-06 04:28:00,14.7,11.3,30.21,SSE,148,0.0,0.0,86,0.00,,---,0.00,VWS V14.01,2013-12-06 12:28:00,
2013-12-06 04:33:00,15.0,11.3,30.20,SSE,148,0.0,0.0,85,0.00,,---,0.00,VWS V14.01,2013-12-06 12:33:00,
2013-12-06 04:38:00,15.2,11.5,30.20,SSE,148,0.0,0.0,85,0.00,,---,0.00,VWS V14.01,2013-12-06 12:38:00,
2013-12-06 04:43:00,15.4,11.7,30.21,SSE,148,0.0,0.0,85,0.00,,---,0.00,VWS V14.01,2013-12-06 12:43:00,
2013-12-06 04:48:00,15.6,11.9,30.21,SSE,148,0.0,0.0,85,0.00,,---,0.00,VWS V14.01,2013-12-06 12:48:00,
2013-12-06 04:53:00,15.8,12.1,30.21,SSE,148,0.0,0.0,85,0.00,,---,0.00,VWS V14.01,2013-12-06 12:53:00,
2013-12-06 04:58:00,15.9,11.9,30.20,SSE,148,0.0,0.0,84,0.00,,---,0.00,VWS V14.01,2013-12-06 12:58:00,
2013-12-06 05:03:00,16.2,12.2,30.20,SSE,148,0.0,0.0,84,0.00,,---,0.00,VWS V14.01,2013-12-06 13:03:00,
2013-12-06 05:08:00,16.2,12.2,30.20,SSE,148,0.0,0.0,84,0.00,,---,0.00,VWS V14.01,2013-12-06 13:08:00,
2013-12-06 05:13:00,16.3,12.3,30.20,SSE,148,0.0,0.0,84,0.00,,---,0.00,VWS V14.01,2013-12-06 13:13:00,
2013-12-06 05:18:00,16.4,12.4,30.20,SSE,148,0.0,0.0,84,0.00,,---,0.00,VWS V14.01,2013-12-06 13:18:00,
2013-12-06 05:23:00,16.4,12.4,30.20,SSE,148,0.0,0.0,84,0.00,,---,0.00,VWS V14.01,2013-12-06 13:23:00,
2013-12-06 05:28:00,16.4,12.4,30.21,SSE,148,0.0,0.0,84,0.00,,---,0.00,VWS V14.01,2013-12-06 13:28:00,
2013-12-06 05:33:00,16.4,12.4,30.21,SSE,148,0.0,0.0,84,0.00,,---,0.00,VWS V14.01,2013-12-06 13:33:00,
2013-12-06 05:38:00,16.4,12.4,30.21,SSE,148,1.0,2.0,84,0.00,,---,0.00,VWS V14.01,2013-12-06 13:38:00,
2013-12-06 05:43:00,16.3,12.3,30.21,SSE,148,2.0,2.0,84,0.00,,---,0.00,VWS V14.01,2013-12-06 13:43:00,
2013-12-06 05:48:00,16.3,12.3,30.22,SSE,148,0.0,1.0,84,0.00,,---,0.00,VWS V14.01,2013-12-06 13:48:00,
2013-12-06 05:53:00,16.3,12.3,30.21,SSE,148,0.0,0.0,84,0.00,,---,0.00,VWS V14.01,2013-12-06 13:53:00,
2013-12-06 05:58:00,16.2,12.0,30.21,SSE,148,0.0,0.0,83,0.00,,---,0.00,VWS V14.01,2013-12-06 13:58:00,
2013-12-06 06:03:00,16.1,11.9,30.22,SSE,148,0.0,0.0,83,0.00,,---,0.00,VWS V14.01,2013-12-06 14:03:00,
2013-12-06 06:08:00,16.0,11.8,30.22,SSE,148,0.0,0.0,83,0.00,,---,0.00,VWS V14.01,2013-12-06 14:08:00,
2013-12-06 06:13:00,15.9,11.7,30.22,SSE,148,1.0,1.0,83,0.00,,---,0.00,VWS V14.01,2013-12-06 14:13:00,
2013-12-06 06:18:00,15.7,11.5,30.22,SSE,148,0.0,1.0,83,0.00,,---,0.00,VWS V14.01,2013-12-06 14:18:00,
2013-12-06 06:23:00,15.4,11.2,30.22,SSE,148,0.0,0.0,83,0.00,,---,0.00,VWS V14.01,2013-12-06 14:23:00,
2013-12-06 06:28:00,15.0,10.5,30.22,SSE,148,0.0,0.0,82,0.00,,---,0.00,VWS V14.01,2013-12-06 14:28:00,
2013-12-06 06:33:00,14.9,10.4,30.22,SSE,148,0.0,0.0,82,0.00,,---,0.00,VWS V14.01,2013-12-06 14:33:00,
2013-12-06 06:38:00,14.6,10.1,30.23,SSE,148,0.0,0.0,82,0.00,,---,0.00,VWS V14.01,2013-12-06 14:38:00,
2013-12-06 06:43:00,14.3,9.8,30.23,SSE,148,0.0,1.0,82,0.00,,---,0.00,VWS V14.01,2013-12-06 14:43:00,
2013-12-06 06:48:00,13.9,9.4,30.23,SSE,162,2.0,2.0,82,0.00,,---,0.00,VWS V14.01,2013-12-06 14:48:00,
2013-12-06 06:53:00,13.5,9.3,30.23,WNW,296,1.0,3.0,83,0.00,,---,0.00,VWS V14.01,2013-12-06 14:53:00,
2013-12-06 06:58:00,13.3,9.4,30.23,WNW,296,0.0,1.0,84,0.00,,---,0.00,VWS V14.01,2013-12-06 14:58:00,
2013-12-06 07:03:00,13.2,9.3,30.24,WNW,296,0.0,2.0,84,0.00,,---,0.00,VWS V14.01,2013-12-06 15:03:00,
2013-12-06 07:08:00,13.2,9.3,30.24,WNW,296,0.0,2.0,84,0.00,,---,0.00,VWS V14.01,2013-12-06 15:08:00,
2013-12-06 07:13:00,13.1,9.2,30.24,WNW,296,1.0,3.0,84,0.00,,---,0.00,VWS V14.01,2013-12-06 15:13:00,
2013-12-06 07:18:00,13.2,9.6,30.25,WNW,296,2.0,3.0,85,0.00,,---,0.00,VWS V14.01,2013-12-06 15:18:00,
2013-12-06 07:23:00,13.4,9.7,30.25,WNW,296,0.0,2.0,85,0.00,,---,0.00,VWS V14.01,2013-12-06 15:23:00,
2013-12-06 07:28:00,13.7,10.3,30.25,WNW,296,2.0,3.0,86,0.00,,---,0.00,VWS V14.01,2013-12-06 15:28:00,
2013-12-06 07:33:00,14.3,10.9,30.25,WNW,296,2.0,3.0,86,0.00,,---,0.00,VWS V14.01,2013-12-06 15:33:00,
2013-12-06 07:38:00,14.8,11.4,30.25,WNW,296,0.0,3.0,86,0.00,,---,0.00,VWS V14.01,2013-12-06 15:38:00,
2013-12-06 07:43:00,15.1,11.7,30.25,WNW,296,0.0,2.0,86,0.00,,---,0.00,VWS V14.01,2013-12-06 15:43:00,
2013-12-06 07:48:00,15.8,12.6,30.25,WNW,296,0.0,0.0,87,0.00,,---,0.00,VWS V14.01,2013-12-06 15:48:00,
2013-12-06 07:53:00,16.1,12.7,30.25,WNW,296,0.0,0.0,86,0.00,,---,0.00,VWS V14.01,2013-12-06 15:53:00,
2013-12-06 07:58:00,16.3,12.9,30.25,WNW,296,0.0,0.0,86,0.00,,---,0.00,VWS V14.01,2013-12-06 15:58:00,
2013-12-06 08:03:00,16.5,13.1,30.26,WNW,296,0.0,0.0,86,0.00,,---,0.00,VWS V14.01,2013-12-06 16:03:00,
2013-12-06 08:08:00,16.7,13.0,30.26,WNW,296,0.0,0.0,85,0.00,,---,0.00,VWS V14.01,2013-12-06 16:08:00,
2013-12-06 08:13:00,17.1,13.4,30.26,WNW,296,0.0,0.0,85,0.00,,---,0.00,VWS V14.01,2013-12-06 16:13:00,
2013-12-06 08:18:00,17.4,13.7,30.26,WNW,296,0.0,0.0,85,0.00,,---,0.00,VWS V14.01,2013-12-06 16:18:00,
2013-12-06 08:23:00,17.5,13.8,30.26,WNW,296,0.0,0.0,85,0.00,,---,0.00,VWS V14.01,2013-12-06 16:23:00,
2013-12-06 08:28:00,17.5,13.5,30.26,WNW,296,0.0,0.0,84,0.00,,---,0.00,VWS V14.01,2013-12-06 16:28:00,
2013-12-06 08:33:00,17.6,13.3,30.27,WNW,296,1.0,2.0,83,0.00,,---,0.00,VWS V14.01,2013-12-06 16:33:00,
2013-12-06 08:38:00,17.8,13.8,30.26,WNW,296,1.0,2.0,84,0.00,,---,0.00,VWS V14.01,2013-12-06 16:38:00,
2013-12-06 08:43:00,18.0,14.0,30.27,WNW,296,0.0,2.0,84,0.00,,---,0.00,VWS V14.01,2013-12-06 16:43:00,
2013-12-06 08:48:00,18.2,14.2,30.27,WNW,296,0.0,0.0,84,0.00,,---,0.00,VWS V14.01,2013-12-06 16:48:00,
2013-12-06 08:53:00,18.5,14.2,30.28,WNW,296,0.0,1.0,83,0.00,,---,0.00,VWS V14.01,2013-12-06 16:53:00,
2013-12-06 08:58:00,18.8,14.5,30.28,WNW,296,2.0,3.0,83,0.00,,---,0.00,VWS V14.01,2013-12-06 16:58:00,
2013-12-06 09:03:00,18.9,14.3,30.28,WNW,296,0.0,1.0,82,0.00,,---,0.00,VWS V14.01,2013-12-06 17:03:00,
2013-12-06 09:08:00,18.9,14.3,30.27,WNW,296,0.0,0.0,82,0.00,,---,0.00,VWS V14.01,2013-12-06 17:08:00,
2013-12-06 09:13:00,19.2,14.6,30.27,WNW,296,0.0,1.0,82,0.00,,---,0.00,VWS V14.01,2013-12-06 17:13:00,
2013-12-06 09:18:00,20.0,15.7,30.27,WNW,296,0.0,1.0,83,0.00,,---,0.00,VWS V14.01,2013-12-06 17:18:00,
2013-12-06 09:24:00,20.2,15.3,30.27,WNW,296,0.0,0.0,81,0.00,,---,0.00,VWS V14.01,2013-12-06 17:24:00,
2013-12-06 09:29:00,21.0,16.1,30.27,WNW,296,0.0,1.0,81,0.00,,---,0.00,VWS V14.01,2013-12-06 17:29:00,
2013-12-06 09:34:00,22.0,17.1,30.28,WNW,296,0.0,0.0,81,0.00,,---,0.00,VWS V14.01,2013-12-06 17:34:00,
2013-12-06 09:39:00,22.6,17.1,30.28,WNW,296,0.0,1.0,79,0.00,,---,0.00,VWS V14.01,2013-12-06 17:39:00,
2013-12-06 09:44:00,22.9,16.8,30.27,SW,221,1.0,3.0,77,0.00,,---,0.00,VWS V14.01,2013-12-06 17:44:00,
2013-12-06 09:49:00,23.3,16.9,30.27,West,274,0.0,2.0,76,0.00,,---,0.00,VWS V14.01,2013-12-06 17:49:00,
2013-12-06 09:54:00,23.9,17.5,30.27,WSW,249,1.0,2.0,76,0.00,,---,0.00,VWS V14.01,2013-12-06 17:54:00,
2013-12-06 09:59:00,23.8,17.0,30.27,SW,221,0.0,3.0,75,0.00,,---,0.00,VWS V14.01,2013-12-06 17:59:00,
2013-12-06 10:04:00,23.8,17.4,30.27,SSW,213,2.0,2.0,76,0.00,,---,0.00,VWS V14.01,2013-12-06 18:04:00,
2013-12-06 10:09:00,24.3,17.5,30.27,SSW,208,2.0,2.0,75,0.00,,---,0.00,VWS V14.01,2013-12-06 18:09:00,
2013-12-06 10:14:00,24.6,17.5,30.27,SW,225,2.0,4.0,74,0.00,,---,0.00,VWS V14.01,2013-12-06 18:14:00,
2013-12-06 10:19:00,24.4,17.0,30.27,SW,231,3.0,4.0,73,0.00,,---,0.00,VWS V14.01,2013-12-06 18:19:00,
2013-12-06 10:24:00,24.0,16.3,30.27,SW,220,4.0,4.0,72,0.00,,---,0.00,VWS V14.01,2013-12-06 18:24:00,
2013-12-06 10:29:00,24.5,17.4,30.27,South,189,2.0,3.0,74,0.00,,---,0.00,VWS V14.01,2013-12-06 18:29:00,
2013-12-06 10:34:00,24.9,18.1,30.27,SW,225,2.0,4.0,75,0.00,,---,0.00,VWS V14.01,2013-12-06 18:34:00,
2013-12-06 10:39:00,24.6,17.2,30.26,South,188,1.0,4.0,73,0.00,,---,0.00,VWS V14.01,2013-12-06 18:39:00,
2013-12-06 10:44:00,24.6,17.2,30.26,SSW,208,2.0,4.0,73,0.00,,---,0.00,VWS V14.01,2013-12-06 18:44:00,
2013-12-06 10:49:00,24.8,17.7,30.26,South,186,2.0,3.0,74,0.00,,---,0.00,VWS V14.01,2013-12-06 18:49:00,
2013-12-06 10:54:00,25.1,17.7,30.26,South,179,0.0,5.0,73,0.00,,---,0.00,VWS V14.01,2013-12-06 18:54:00,
2013-12-06 10:59:00,25.8,18.4,30.25,South,182,0.0,6.0,73,0.00,,---,0.00,VWS V14.01,2013-12-06 18:59:00,
2013-12-06 11:04:00,26.0,18.2,30.25,South,186,1.0,2.0,72,0.00,,---,0.00,VWS V14.01,2013-12-06 19:04:00,
2013-12-06 11:09:00,26.2,18.1,30.25,SSW,205,2.0,5.0,71,0.00,,---,0.00,VWS V14.01,2013-12-06 19:09:00,
2013-12-06 11:14:00,26.5,18.0,30.25,South,185,0.0,5.0,70,0.00,,---,0.00,VWS V14.01,2013-12-06 19:14:00,
2013-12-06 11:19:00,26.5,18.0,30.24,South,187,1.0,5.0,70,0.00,,---,0.00,VWS V14.01,2013-12-06 19:19:00,
2013-12-06 11:24:00,26.5,17.7,30.24,South,186,1.0,4.0,69,0.00,,---,0.00,VWS V14.01,2013-12-06 19:24:00,
2013-12-06 11:29:00,26.2,17.4,30.23,SSE,155,2.0,4.0,69,0.00,,---,0.00,VWS V14.01,2013-12-06 19:29:00,
2013-12-06 11:34:00,26.5,17.4,30.23,SSW,212,2.0,3.0,68,0.00,,---,0.00,VWS V14.01,2013-12-06 19:34:00,
2013-12-06 11:39:00,26.7,17.6,30.23,SW,215,0.0,4.0,68,0.00,,---,0.00,VWS V14.01,2013-12-06 19:39:00,
2013-12-06 11:44:00,27.3,17.8,30.23,SSE,164,3.0,4.0,67,0.00,,---,0.00,VWS V14.01,2013-12-06 19:44:00,
2013-12-06 11:49:00,27.1,17.6,30.22,South,178,2.0,6.0,67,0.00,,---,0.00,VWS V14.01,2013-12-06 19:49:00,
2013-12-06 11:54:00,27.9,18.7,30.22,South,180,3.0,5.0,68,0.00,,---,0.00,VWS V14.01,2013-12-06 19:54:00,
2013-12-06 11:59:00,27.6,17.4,30.21,SSE,158,4.0,5.0,65,0.00,,---,0.00,VWS V14.01,2013-12-06 19:59:00,
2013-12-06 12:04:00,28.3,18.8,30.21,SSW,200,3.0,6.0,67,0.00,,---,0.00,VWS V14.01,2013-12-06 20:04:00,
2013-12-06 12:09:00,28.5,17.9,30.21,SSW,202,1.0,5.0,64,0.00,,---,0.00,VWS V14.01,2013-12-06 20:09:00,
2013-12-06 12:14:00,28.9,18.3,30.20,South,184,0.0,5.0,64,0.00,,---,0.00,VWS V14.01,2013-12-06 20:14:00,
2013-12-06 12:19:00,28.8,18.5,30.20,SSW,192,3.0,5.0,65,0.00,,---,0.00,VWS V14.01,2013-12-06 20:19:00,
2013-12-06 12:24:00,28.7,17.7,30.19,SSW,192,4.0,6.0,63,0.00,,---,0.00,VWS V14.01,2013-12-06 20:24:00,
2013-12-06 12:29:00,28.8,17.8,30.19,South,174,0.0,5.0,63,0.00,,---,0.00,VWS V14.01,2013-12-06 20:29:00,
2013-12-06 12:34:00,28.5,17.1,30.19,South,180,4.0,5.0,62,0.00,,---,0.00,VWS V14.01,2013-12-06 20:34:00,
2013-12-06 12:39:00,28.8,17.8,30.19,SSW,196,4.0,4.0,63,0.00,,---,0.00,VWS V14.01,2013-12-06 20:39:00,
2013-12-06 12:44:00,28.9,17.5,30.19,South,190,1.0,4.0,62,0.00,,---,0.00,VWS V14.01,2013-12-06 20:44:00,
2013-12-06 12:49:00,29.2,17.8,30.18,SSW,209,1.0,5.0,62,0.00,,---,0.00,VWS V14.01,2013-12-06 20:49:00,
2013-12-06 12:54:00,29.1,17.0,30.18,SSE,165,1.0,7.0,60,0.00,,---,0.00,VWS V14.01,2013-12-06 20:54:00,
2013-12-06 12:59:00,29.0,17.2,30.17,SSW,209,1.0,5.0,61,0.00,,---,0.00,VWS V14.01,2013-12-06 20:59:00,
2013-12-06 13:04:00,29.0,17.6,30.17,SW,235,1.0,5.0,62,0.00,,---,0.00,VWS V14.01,2013-12-06 21:04:00,
2013-12-06 13:09:00,29.1,17.7,30.17,SW,223,1.0,3.0,62,0.00,,---,0.00,VWS V14.01,2013-12-06 21:09:00,
2013-12-06 13:14:00,28.9,16.8,30.17,SSW,212,3.0,6.0,60,0.00,,---,0.00,VWS V14.01,2013-12-06 21:14:00,
2013-12-06 13:19:00,28.8,16.3,30.16,SSW,192,2.0,4.0,59,0.00,,---,0.00,VWS V14.01,2013-12-06 21:19:00,
2013-12-06 13:24:00,28.9,16.8,30.16,SSW,212,0.0,3.0,60,0.00,,---,0.00,VWS V14.01,2013-12-06 21:24:00,
2013-12-06 13:29:00,28.9,16.0,30.16,SW,234,4.0,5.0,58,0.00,,---,0.00,VWS V14.01,2013-12-06 21:29:00,
2013-12-06 13:34:00,29.1,16.6,30.15,SW,223,5.0,5.0,59,0.00,,---,0.00,VWS V14.01,2013-12-06 21:34:00,
2013-12-06 13:39:00,29.0,16.9,30.15,SW,219,3.0,4.0,60,0.00,,---,0.00,VWS V14.01,2013-12-06 21:39:00,
2013-12-06 13:44:00,29.2,17.4,30.15,SSW,202,1.0,4.0,61,0.00,,---,0.00,VWS V14.01,2013-12-06 21:44:00,
2013-12-06 13:49:00,29.3,17.9,30.15,SW,236,0.0,4.0,62,0.00,,---,0.00,VWS V14.01,2013-12-06 21:49:00,
2013-12-06 13:54:00,29.4,18.0,30.14,SW,235,1.0,3.0,62,0.00,,---,0.00,VWS V14.01,2013-12-06 21:54:00,
2013-12-06 13:59:00,29.2,17.4,30.14,SSW,207,0.0,4.0,61,0.00,,---,0.00,VWS V14.01,2013-12-06 21:59:00,
2013-12-06 14:04:00,29.5,18.5,30.14,SW,229,3.0,3.0,63,0.00,,---,0.00,VWS V14.01,2013-12-06 22:04:00,
2013-12-06 14:09:00,29.4,18.0,30.14,SW,228,0.0,3.0,62,0.00,,---,0.00,VWS V14.01,2013-12-06 22:09:00,
2013-12-06 14:14:00,29.6,18.6,30.14,WSW,240,0.0,4.0,63,0.00,,---,0.00,VWS V14.01,2013-12-06 22:14:00,
2013-12-06 14:19:00,29.6,18.6,30.13,WSW,240,0.0,2.0,63,0.00,,---,0.00,VWS V14.01,2013-12-06 22:19:00,
2013-12-06 14:25:00,29.6,18.9,30.13,SW,225,0.0,1.0,64,0.00,,---,0.00,VWS V14.01,2013-12-06 22:25:00,
2013-12-06 14:30:00,29.6,18.6,30.13,SW,227,0.0,2.0,63,0.00,,---,0.00,VWS V14.01,2013-12-06 22:30:00,
2013-12-06 14:34:00,29.6,18.6,30.13,SW,227,0.0,1.0,63,0.00,,---,0.00,VWS V14.01,2013-12-06 22:34:00,
2013-12-06 14:39:00,29.6,18.6,30.13,SW,227,2.0,2.0,63,0.00,,---,0.00,VWS V14.01,2013-12-06 22:39:00,
2013-12-06 14:44:00,29.7,19.0,30.13,SW,227,0.0,0.0,64,0.00,,---,0.00,VWS V14.01,2013-12-06 22:44:00,
2013-12-06 14:49:00,29.7,18.7,30.13,SW,227,0.0,1.0,63,0.00,,---,0.00,VWS V14.01,2013-12-06 22:49:00,
2013-12-06 14:54:00,29.7,18.7,30.13,SW,225,0.0,2.0,63,0.00,,---,0.00,VWS V14.01,2013-12-06 22:54:00,
2013-12-06 14:59:00,29.6,18.6,30.13,SW,225,0.0,2.0,63,0.00,,---,0.00,VWS V14.01,2013-12-06 22:59:00,
2013-12-06 15:04:00,29.6,18.6,30.13,SW,225,0.0,1.0,63,0.00,,---,0.00,VWS V14.01,2013-12-06 23:04:00,
2013-12-06 15:09:00,29.7,19.0,30.13,SW,225,0.0,2.0,64,0.00,,---,0.00,VWS V14.01,2013-12-06 23:09:00,
2013-12-06 15:14:00,29.7,19.4,30.13,SW,225,0.0,0.0,65,0.00,,---,0.00,VWS V14.01,2013-12-06 23:14:00,
2013-12-06 15:19:00,29.8,19.1,30.13,SW,225,0.0,0.0,64,0.00,,---,0.00,VWS V14.01,2013-12-06 23:19:00,
2013-12-06 15:24:00,29.7,19.4,30.12,SW,225,1.0,1.0,65,0.00,,---,0.00,VWS V14.01,2013-12-06 23:24:00,
2013-12-06 15:29:00,29.7,19.4,30.12,SW,225,1.0,1.0,65,0.00,,---,0.00,VWS V14.01,2013-12-06 23:29:00,
2013-12-06 15:34:00,29.7,19.4,30.12,SW,225,1.0,1.0,65,0.00,,---,0.00,VWS V14.01,2013-12-06 23:34:00,
2013-12-06 15:39:00,29.7,19.4,30.12,SW,225,1.0,1.0,65,0.00,,---,0.00,VWS V14.01,2013-12-06 23:39:00,
2013-12-06 15:44:00,29.7,19.4,30.11,SW,225,1.0,1.0,65,0.00,,---,0.00,VWS V14.01,2013-12-06 23:44:00,
2013-12-06 15:49:00,29.7,19.4,30.11,SW,225,1.0,1.0,65,0.00,,---,0.00,VWS V14.01,2013-12-06 23:49:00,
2013-12-06 15:54:00,29.3,19.0,30.11,SW,225,0.0,1.0,65,0.00,,---,0.00,VWS V14.01,2013-12-06 23:54:00,
2013-12-06 15:59:00,29.2,18.9,30.11,SW,225,0.0,0.0,65,0.00,,---,0.00,VWS V14.01,2013-12-06 23:59:00,
2013-12-06 16:05:00,29.1,19.5,30.11,SW,225,0.0,0.0,67,0.00,,---,0.00,VWS V14.01,2013-12-07 00:05:00,
2013-12-06 16:10:00,29.0,19.8,30.11,SW,225,0.0,0.0,68,0.00,,---,0.00,VWS V14.01,2013-12-07 00:10:00,
2013-12-06 16:15:00,28.8,19.6,30.11,SW,225,0.0,0.0,68,0.00,,---,0.00,VWS V14.01,2013-12-07 00:15:00,
2013-12-06 16:20:00,28.7,19.5,30.10,SSW,198,3.0,4.0,68,0.00,,---,0.00,VWS V14.01,2013-12-07 00:20:00,
2013-12-06 16:25:00,28.5,19.6,30.10,SSW,198,3.0,4.0,69,0.00,,---,0.00,VWS V14.01,2013-12-07 00:25:00,
2013-12-06 16:30:00,28.4,19.9,30.10,SSW,198,0.0,2.0,70,0.00,,---,0.00,VWS V14.01,2013-12-07 00:30:00,
2013-12-06 16:35:00,28.2,19.4,30.10,SSW,198,0.0,4.0,69,0.00,,---,0.00,VWS V14.01,2013-12-07 00:35:00,
2013-12-06 16:40:00,28.1,19.6,30.10,SSW,198,0.0,3.0,70,0.00,,---,0.00,VWS V14.01,2013-12-07 00:40:00,
2013-12-06 16:45:00,28.0,19.5,30.10,SSW,198,0.0,2.0,70,0.00,,---,0.00,VWS V14.01,2013-12-07 00:45:00,
2013-12-06 16:50:00,28.0,19.5,30.10,SSW,198,1.0,3.0,70,0.00,,---,0.00,VWS V14.01,2013-12-07 00:50:00,
2013-12-06 16:55:00,27.9,19.4,30.10,SSE,164,0.0,2.0,70,0.00,,---,0.00,VWS V14.01,2013-12-07 00:55:00,
2013-12-06 17:00:00,27.9,19.4,30.10,SSE,164,0.0,3.0,70,0.00,,---,0.00,VWS V14.01,2013-12-07 01:00:00,
2013-12-06 17:05:00,27.9,19.7,30.10,SE,140,4.0,4.0,71,0.00,,---,0.00,VWS V14.01,2013-12-07 01:05:00,
2013-12-06 17:10:00,27.9,19.4,30.10,SE,144,0.0,3.0,70,0.00,,---,0.00,VWS V14.01,2013-12-07 01:10:00,
2013-12-06 17:15:00,27.8,19.6,30.10,SE,143,3.0,3.0,71,0.00,,---,0.00,VWS V14.01,2013-12-07 01:15:00,
2013-12-06 17:20:00,27.8,19.6,30.09,SSE,158,1.0,4.0,71,0.00,,---,0.00,VWS V14.01,2013-12-07 01:20:00,
2013-12-06 17:25:00,27.7,19.5,30.09,SSE,165,0.0,4.0,71,0.00,,---,0.00,VWS V14.01,2013-12-07 01:25:00,
2013-12-06 17:30:00,27.6,19.4,30.09,South,186,4.0,5.0,71,0.00,,---,0.00,VWS V14.01,2013-12-07 01:30:00,
2013-12-06 17:35:00,27.7,19.5,30.09,SSW,201,4.0,5.0,71,0.00,,---,0.00,VWS V14.01,2013-12-07 01:35:00,
2013-12-06 17:40:00,27.7,19.2,30.09,South,182,5.0,6.0,70,0.00,,---,0.00,VWS V14.01,2013-12-07 01:40:00,
2013-12-06 17:45:00,27.7,19.2,30.08,South,188,1.0,6.0,70,0.00,,---,0.00,VWS V14.01,2013-12-07 01:45:00,
2013-12-06 17:50:00,27.7,19.2,30.08,South,174,1.0,3.0,70,0.00,,---,0.00,VWS V14.01,2013-12-07 01:50:00,
2013-12-06 17:55:00,27.6,19.1,30.08,SSW,200,3.0,5.0,70,0.00,,---,0.00,VWS V14.01,2013-12-07 01:55:00,
2013-12-06 18:00:00,27.6,19.1,30.08,South,188,2.0,6.0,70,0.00,,---,0.00,VWS V14.01,2013-12-07 02:00:00,
2013-12-06 18:05:00,27.6,19.1,30.08,South,185,4.0,7.0,70,0.00,,---,0.00,VWS V14.01,2013-12-07 02:05:00,
2013-12-06 18:10:00,27.6,19.1,30.07,SSW,192,3.0,6.0,70,0.00,,---,0.00,VWS V14.01,2013-12-07 02:10:00,
2013-12-06 18:15:00,27.5,19.0,30.07,SSW,205,4.0,7.0,70,0.00,,---,0.00,VWS V14.01,2013-12-07 02:15:00,
2013-12-06 18:20:00,27.4,18.9,30.07,SSW,208,4.0,5.0,70,0.00,,---,0.00,VWS V14.01,2013-12-07 02:20:00,
2013-12-06 18:25:00,27.5,19.0,30.07,SSW,207,4.0,6.0,70,0.00,,---,0.00,VWS V14.01,2013-12-07 02:25:00,
2013-12-06 18:30:00,27.4,18.9,30.08,SSW,204,0.0,5.0,70,0.00,,---,0.00,VWS V14.01,2013-12-07 02:30:00,
2013-12-06 18:35:00,27.4,18.9,30.07,SSW,204,0.0,2.0,70,0.00,,---,0.00,VWS V14.01,2013-12-07 02:35:00,
2013-12-06 18:40:00,27.3,19.1,30.07,SSW,204,0.0,0.0,71,0.00,,---,0.00,VWS V14.01,2013-12-07 02:40:00,
2013-12-06 18:45:00,27.2,19.1,30.07,SSW,204,0.0,0.0,71,0.00,,---,0.00,VWS V14.01,2013-12-07 02:45:00,
2013-12-06 18:50:00,27.2,19.1,30.07,SSW,204,0.0,1.0,71,0.00,,---,0.00,VWS V14.01,2013-12-07 02:50:00,
2013-12-06 18:55:00,27.1,19.0,30.07,SSW,204,1.0,1.0,71,0.00,,---,0.00,VWS V14.01,2013-12-07 02:55:00,
2013-12-06 19:00:00,27.1,19.3,30.07,SSW,204,0.0,1.0,72,0.00,,---,0.00,VWS V14.01,2013-12-07 03:00:00,
2013-12-06 19:05:00,27.1,19.0,30.06,South,180,1.0,3.0,71,0.00,,---,0.00,VWS V14.01,2013-12-07 03:05:00,
2013-12-06 19:10:00,27.4,18.9,30.06,SSW,198,1.0,4.0,70,0.00,,---,0.00,VWS V14.01,2013-12-07 03:10:00,
2013-12-06 19:15:00,27.7,18.9,30.06,SW,220,2.0,6.0,69,0.00,,---,0.00,VWS V14.01,2013-12-07 03:15:00,
2013-12-06 19:20:00,27.8,19.3,30.06,SW,220,0.0,3.0,70,0.00,,---,0.00,VWS V14.01,2013-12-07 03:20:00,
2013-12-06 19:25:00,27.8,19.0,30.05,SW,220,0.0,1.0,69,0.00,,---,0.00,VWS V14.01,2013-12-07 03:25:00,
2013-12-06 19:30:00,27.7,19.2,30.04,South,190,2.0,3.0,70,0.00,,---,0.00,VWS V14.01,2013-12-07 03:30:00,
2013-12-06 19:35:00,27.5,19.4,30.04,South,190,1.0,4.0,71,0.00,,---,0.00,VWS V14.01,2013-12-07 03:35:00,
2013-12-06 19:40:00,27.5,19.4,30.03,South,188,1.0,6.0,71,0.00,,---,0.00,VWS V14.01,2013-12-07 03:40:00,
2013-12-06 19:45:00,27.8,19.3,30.03,SSE,167,1.0,3.0,70,0.00,,---,0.00,VWS V14.01,2013-12-07 03:45:00,
2013-12-06 19:50:00,27.8,19.0,30.03,South,169,3.0,5.0,69,0.00,,---,0.00,VWS V14.01,2013-12-07 03:50:00,
2013-12-06 19:55:00,27.8,18.6,30.03,South,170,4.0,6.0,68,0.00,,---,0.00,VWS V14.01,2013-12-07 03:55:00,
2013-12-06 20:00:00,27.8,18.3,30.03,SSW,202,4.0,6.0,67,0.00,,---,0.00,VWS V14.01,2013-12-07 04:00:00,
2013-12-06 20:05:00,27.9,18.4,30.02,SSE,157,6.0,9.0,67,0.00,,---,0.00,VWS V14.01,2013-12-07 04:05:00,
2013-12-06 20:10:00,28.4,18.5,30.02,South,190,6.0,8.0,66,0.00,,---,0.00,VWS V14.01,2013-12-07 04:10:00,
2013-12-06 20:15:00,28.6,18.7,30.02,SSW,195,1.0,6.0,66,0.00,,---,0.00,VWS V14.01,2013-12-07 04:15:00,
2013-12-06 20:20:00,28.7,18.4,30.02,SSW,200,0.0,5.0,65,0.00,,---,0.00,VWS V14.01,2013-12-07 04:20:00,
2013-12-06 20:25:00,28.3,18.4,30.02,SSW,199,0.0,0.0,66,0.00,,---,0.00,VWS V14.01,2013-12-07 04:25:00,
2013-12-06 20:30:00,28.1,18.6,30.02,South,188,1.0,2.0,67,0.00,,---,0.00,VWS V14.01,2013-12-07 04:30:00,
2013-12-06 20:35:00,27.8,18.6,30.02,South,175,1.0,3.0,68,0.00,,---,0.00,VWS V14.01,2013-12-07 04:35:00,
2013-12-06 20:40:00,27.6,18.8,30.01,South,187,6.0,6.0,69,0.00,,---,0.00,VWS V14.01,2013-12-07 04:40:00,
2013-12-06 20:45:00,27.7,18.9,30.00,South,186,3.0,6.0,69,0.00,,---,0.00,VWS V14.01,2013-12-07 04:45:00,
2013-12-06 20:50:00,27.6,18.8,30.00,SSW,196,2.0,7.0,69,0.00,,---,0.00,VWS V14.01,2013-12-07 04:50:00,
2013-12-06 20:55:00,27.4,18.9,30.00,SSW,196,3.0,6.0,70,0.00,,---,0.00,VWS V14.01,2013-12-07 04:55:00,
2013-12-06 21:00:00,27.1,18.6,29.99,South,182,6.0,7.0,70,0.00,,---,0.00,VWS V14.01,2013-12-07 05:00:00,
2013-12-06 21:01:00,27.1,18.6,30.00,SSW,200,6.0,7.0,70,0.00,,---,0.00,VWS V14.01,2013-12-07 05:01:00,
2013-12-06 21:06:00,27.2,18.7,29.99,South,189,1.0,5.0,70,0.00,,---,0.00,VWS V14.01,2013-12-07 05:06:00,
2013-12-06 21:11:00,27.4,18.9,29.99,SSW,192,4.0,6.0,70,0.00,,---,0.00,VWS V14.01,2013-12-07 05:11:00,
2013-12-06 21:16:00,27.5,18.7,29.98,SSE,166,3.0,5.0,69,0.00,,---,0.00,VWS V14.01,2013-12-07 05:16:00,
2013-12-06 21:17:00,27.6,18.8,29.98,SSE,165,6.0,7.0,69,0.00,,---,0.00,VWS V14.01,2013-12-07 05:17:00,
2013-12-06 21:22:00,27.8,18.6,29.97,South,180,3.0,7.0,68,0.00,,---,0.00,VWS V14.01,2013-12-07 05:22:00,
2013-12-06 21:27:00,27.8,18.6,29.96,SSE,154,6.0,8.0,68,0.00,,---,0.00,VWS V14.01,2013-12-07 05:27:00,
2013-12-06 21:32:00,28.0,18.5,29.97,South,182,5.0,7.0,67,0.00,,---,0.00,VWS V14.01,2013-12-07 05:32:00,
2013-12-06 21:37:00,28.2,18.7,29.97,South,187,3.0,7.0,67,0.00,,---,0.00,VWS V14.01,2013-12-07 05:37:00,
2013-12-06 21:42:00,28.4,18.9,29.97,South,183,0.0,4.0,67,0.00,,---,0.00,VWS V14.01,2013-12-07 05:42:00,
2013-12-06 21:47:00,28.6,18.7,29.96,South,178,6.0,6.0,66,0.00,,---,0.00,VWS V14.01,2013-12-07 05:47:00,
2013-12-06 21:52:00,29.0,19.1,29.96,South,169,3.0,6.0,66,0.00,,---,0.00,VWS V14.01,2013-12-07 05:52:00,
2013-12-06 21:57:00,29.4,19.1,29.95,SSE,158,3.0,6.0,65,0.00,,---,0.00,VWS V14.01,2013-12-07 05:57:00,
2013-12-06 22:03:00,29.6,18.9,29.95,South,173,3.0,5.0,64,0.00,,---,0.00,VWS V14.01,2013-12-07 06:03:00,
2013-12-06 22:08:00,29.7,19.0,29.94,South,191,9.0,9.0,64,0.00,,---,0.00,VWS V14.01,2013-12-07 06:08:00,
2013-12-06 22:13:00,29.7,19.4,29.94,SSW,206,6.0,11.0,65,0.00,,---,0.00,VWS V14.01,2013-12-07 06:13:00,
2013-12-06 22:18:00,29.8,19.5,29.94,South,190,6.0,8.0,65,0.00,,---,0.00,VWS V14.01,2013-12-07 06:18:00,
2013-12-06 22:23:00,30.0,19.3,29.94,South,183,9.0,12.0,64,0.00,,---,0.00,VWS V14.01,2013-12-07 06:23:00,
2013-12-06 22:28:00,30.0,19.0,29.94,South,189,7.0,11.0,63,0.00,,---,0.00,VWS V14.01,2013-12-07 06:28:00,
2013-12-06 22:33:00,30.2,18.8,29.94,SSW,198,9.0,11.0,62,0.00,,---,0.00,VWS V14.01,2013-12-07 06:33:00,
2013-12-06 22:38:00,30.5,18.7,29.93,SSE,158,7.0,12.0,61,0.00,,---,0.00,VWS V14.01,2013-12-07 06:38:00,
2013-12-06 22:43:00,30.6,18.4,29.93,South,190,5.0,8.0,60,0.00,,---,0.00,VWS V14.01,2013-12-07 06:43:00,
2013-12-06 22:48:00,30.5,18.7,29.92,South,183,3.0,7.0,61,0.00,,---,0.00,VWS V14.01,2013-12-07 06:48:00,
2013-12-06 22:53:00,30.4,19.0,29.92,SSE,155,1.0,5.0,62,0.00,,---,0.00,VWS V14.01,2013-12-07 06:53:00,
2013-12-06 22:58:00,30.5,18.7,29.92,South,177,5.0,6.0,61,0.00,,---,0.00,VWS V14.01,2013-12-07 06:58:00,
2013-12-06 23:03:00,30.5,18.7,29.91,South,171,2.0,7.0,61,0.00,,---,0.00,VWS V14.01,2013-12-07 07:03:00,
2013-12-06 23:08:00,30.6,18.8,29.91,South,183,1.0,10.0,61,0.00,,---,0.00,VWS V14.01,2013-12-07 07:08:00,
2013-12-06 23:13:00,30.6,18.8,29.91,South,186,4.0,10.0,61,0.00,,---,0.00,VWS V14.01,2013-12-07 07:13:00,
2013-12-06 23:18:00,30.6,18.8,29.91,South,182,5.0,7.0,61,0.00,,---,0.00,VWS V14.01,2013-12-07 07:18:00,
2013-12-06 23:23:00,30.6,19.1,29.91,SSE,147,6.0,10.0,62,0.00,,---,0.00,VWS V14.01,2013-12-07 07:23:00,
2013-12-06 23:28:00,30.7,18.9,29.90,South,169,5.0,10.0,61,0.00,,---,0.00,VWS V14.01,2013-12-07 07:28:00,
2013-12-06 23:33:00,30.8,19.0,29.90,South,177,2.0,7.0,61,0.00,,---,0.00,VWS V14.01,2013-12-07 07:33:00,
2013-12-06 23:38:00,30.8,19.0,29.89,South,178,2.0,9.0,61,0.00,,---,0.00,VWS V14.01,2013-12-07 07:38:00,
2013-12-06 23:43:00,30.7,18.9,29.89,South,169,0.0,6.0,61,0.00,,---,0.00,VWS V14.01,2013-12-07 07:43:00,
2013-12-06 23:48:00,30.7,18.9,29.89,South,171,1.0,6.0,61,0.00,,---,0.00,VWS V14.01,2013-12-07 07:48:00,
2013-12-06 23:53:00,30.6,19.1,29.89,South,174,6.0,7.0,62,0.00,,---,0.00,VWS V14.01,2013-12-07 07:53:00,
2013-12-06 23:58:00,30.9,18.7,29.88,South,188,5.0,11.0,60,0.00,,---,0.00,VWS V14.01,2013-12-07 07:58:00,